星链-2704 (STARLINK-2704 )

导读

STARLINK-2704是美国太空探索技术公司(SpaceX)星链计划中的卫星,于2021年5月26日发射,属于星链星座组网批次。星链旨在搭建全球卫星互联网,为偏远地区等提供互联网接入服务,该卫星入轨后逐步参与星座运行,服务全球网络覆盖部署,是SpaceX大规模低轨星座搭建中的组成单元。

Basic Information
目录编号:
48643
目录名称:
STARLINK-2704
国际标识:
2021-044F
轨道中心:
EARTH
卫星名称:
星链-2704
卫星全名:
星链-2704 (STARLINK-2704 )
卫星状态:
在轨 (已飞行1927 天)
发射日期:
2021-05-26 UTC
国别 :
美国 (US)
星等 :
--
Orbit Information
数据来源 国际轨道数据 AOE轨道数据
星历时间 2026-09-04T03:44:10+0800
16小时前
查看轨道信息
2026-09-03T08:00:00+0800
1天前
查看轨道信息
半长轴 6848.818km 6848.895km
偏心率 0.0000976 0.000102
轨道倾角 53.159° 53.158°
近地点辐角 83.586° 73.656°
升交点赤经 4.901° 8.732°
平近点角 276.525° 69.405°
近地点 470.012km 470.059km
远地点 471.35km 471.457km
周期 94.012分钟 94.014分钟
每日圈数 15.3172 15.316941
Detailed Information
固有亮度:
5
最大亮度:
2.5
卫星平台:
Starlink V1.0
覆盖范围:
全球
运营商:
太空探索技术公司
运营商所在国:
美国
制造商(研发单位):
太空探索技术公司
制造商所在国:
美国
使用方式:
暂无
Satellite Introduction
星链(Starlink)计划是由太空探索技术公司(SpaceX)提出的一个巨型低轨卫星互联网星座项目,计划在2019年至2024年间在太空搭建由约1.2万颗卫星组成的“星链”网络,其中1584颗将部署在地球上空550千米处的近地轨道,并从2020年开始工作。该卫星仍在工作。
2D Orbit Map
3D Orbit Map
Orbit Altitude Analysis Chart
Orbit Inclination Analysis Chart
Orbit Comprehensive Analysis Chart
View Comprehensive Chart
Conjunction Data List
Event ID Objects TCA Miss Dist (km) Collision Risk Probability Collision Risk Index (CRI) Action
CDM_260905-105404-864306-790121
2026-09-05T
10:54:49+0000
2.780 km
极远距离
1.477337E-6 低风险 0.38
CDM_260905-195704-864306-868221
2026-09-05T
19:57:21+0000
2.979 km
极远距离
1.268566E-6 低风险 0.37
CDM_260905-024004-864306-436621
2026-09-05T
02:40:22+0000
2.421 km
极远距离
1.170876E-6 低风险 0.36
CDM_260905-032704-864306-436621
2026-09-05T
03:27:22+0000
2.455 km
极远距离
1.142642E-6 低风险 0.36
CDM_260906-131404-864306-416021
2026-09-06T
13:14:17+0000
2.988 km
极远距离
9.844043E-7 极低风险 0.35